Location: ČR
(50.0000°N, 15.0000°E)
Time: 13:19:18
(UTC+00:00)

SR - All Passes

Search period start: 25 October 2021 00:00
Search period end: 04 November 2021 00:00
Orbit: 582 x 872 km, 66.7° (Epoch: 24 October)

Date Brightness Start Highest point End Pass type
(mag) Time Alt. Az. Time Alt. Az. Time Alt. Az.
25 Oct - 07:25:25 10° SSE 07:29:24 24° ESE 07:33:11 10° ENE daylight
25 Oct - 09:06:20 10° SW 09:11:10 57° NW 09:15:39 10° NNE daylight
25 Oct - 10:51:12 10° WNW 10:54:05 16° NNW 10:56:53 10° NNE daylight
25 Oct - 14:19:38 10° N 14:22:05 15° NNE 14:24:30 10° ENE daylight
25 Oct - 16:00:51 10° NNW 16:05:05 54° NE 16:09:15 10° SE daylight
25 Oct - 17:43:30 10° WNW 17:46:42 21° WSW 17:49:56 10° SSW visible
26 Oct - 06:37:46 10° SE 06:39:54 13° ESE 06:41:59 10° E daylight
26 Oct - 08:16:20 10° SSW 08:21:17 80° SE 08:25:51 10° NE daylight
26 Oct - 10:00:00 10° W 10:03:46 23° NW 10:07:22 10° NNE daylight
26 Oct - 13:30:21 10° N 13:31:36 11° NNE 13:32:51 10° NNE daylight
26 Oct - 15:11:11 10° NNW 15:15:02 31° NE 15:18:50 10° ESE daylight
26 Oct - 16:53:07 10° NW 16:57:08 41° WSW 17:01:09 10° S visible
27 Oct - 07:26:51 10° S 07:31:31 42° ESE 07:35:52 10° NE daylight
27 Oct - 09:09:11 10° WSW 09:13:37 35° NW 09:17:47 10° NNE daylight
27 Oct - 10:55:04 10° NW 10:56:55 12° NNW 10:58:43 10° N daylight
27 Oct - 14:21:36 10° NNW 14:24:50 20° NNE 14:28:00 10° E daylight
27 Oct - 16:03:07 10° NW 16:07:23 84° WSW 16:11:40 10° SSE daylight
27 Oct - 17:47:26 10° W 17:48:39 11° WSW 17:49:52 10° WSW visible
28 Oct - 06:38:04 10° SSE 06:41:54 23° ESE 06:45:31 10° ENE daylight
28 Oct - 08:18:47 10° SW 08:23:37 61° NW 08:28:06 10° NNE daylight
28 Oct - 10:03:31 10° WNW 10:06:29 16° NNW 10:09:20 10° NNE daylight
28 Oct - 13:32:09 10° N 13:34:28 14° NNE 13:36:46 10° ENE daylight
28 Oct - 15:13:19 10° NNW 15:17:30 51° NE 15:21:40 10° SE daylight
28 Oct - 16:55:52 10° WNW 16:59:12 23° WSW 17:02:33 10° SSW visible
29 Oct - 05:50:43 10° SE 05:52:25 12° ESE 05:54:04 10° E daylight
29 Oct - 07:28:50 10° SSW 07:33:44 75° SE 07:38:17 10° NE daylight
29 Oct - 09:12:22 10° W 09:16:11 24° NW 09:19:50 10° NNE daylight
29 Oct - 12:42:57 10° N 12:43:59 11° NNE 12:45:01 10° NNE daylight
29 Oct - 14:23:39 10° NNW 14:27:26 29° NE 14:31:12 10° ESE daylight
29 Oct - 16:05:32 10° NW 16:09:36 45° WSW 16:13:41 10° SSE visible
30 Oct - 06:39:25 10° S 06:44:00 39° ESE 06:48:16 10° NE daylight
30 Oct - 08:21:35 10° WSW 08:26:03 37° NW 08:30:14 10° NNE daylight
30 Oct - 10:07:22 10° NW 10:09:18 12° NNW 10:11:12 10° N daylight
30 Oct - 13:34:06 10° NNW 13:37:13 19° NNE 13:40:19 10° E daylight
30 Oct - 15:15:33 10° NW 15:19:50 90° NNW 15:24:08 10° SE daylight
30 Oct - 16:59:29 10° W 17:01:09 12° WSW 17:02:49 10° SW visible
31 Oct - 05:50:43 10° SSE 05:54:23 21° ESE 05:57:51 10° ENE daylight
31 Oct - 07:31:14 10° SW 07:36:03 65° NW 07:40:32 10° NNE daylight
31 Oct - 09:15:51 10° WNW 09:18:53 17° NNW 09:21:49 10° NNE daylight
31 Oct - 12:44:39 10° N 12:46:51 14° NNE 12:49:02 10° NE daylight
31 Oct - 14:25:47 10° NNW 14:29:56 47° NE 14:34:04 10° ESE daylight
31 Oct - 16:08:14 10° WNW 16:11:40 24° WSW 16:15:09 10° SSW visible
01 Nov - 05:03:52 10° ESE 05:04:54 11° ESE 05:05:57 10° E visible
01 Nov - 06:41:20 10° SSW 06:46:12 70° ESE 06:50:42 10° NE daylight
01 Nov - 08:24:44 10° W 08:28:36 25° NW 08:32:17 10° NNE daylight
01 Nov - 11:55:34 10° N 11:56:22 10° NNE 11:57:08 10° NNE daylight
01 Nov - 13:36:08 10° NNW 13:39:51 28° NE 13:43:33 10° E daylight
01 Nov - 15:17:57 10° NW 15:22:03 48° WSW 15:26:11 10° SSE daylight
02 Nov - 05:51:59 10° S 05:56:28 37° ESE 06:00:39 10° NE daylight
02 Nov - 07:34:00 10° WSW 07:38:29 39° NW 07:42:41 10° NNE daylight
02 Nov - 09:19:39 10° NW 09:21:41 13° NNW 09:23:40 10° N daylight
02 Nov - 12:46:35 10° NNW 12:49:37 18° NNE 12:52:37 10° ENE daylight
02 Nov - 14:28:00 10° NW 14:32:17 84° NE 14:36:35 10° SE daylight
02 Nov - 16:11:38 10° W 16:13:38 13° WSW 16:15:39 10° SW visible
03 Nov - 05:03:24 10° SSE 05:06:52 20° ESE 05:10:11 10° ENE visible
03 Nov - 06:43:41 10° SW 06:48:30 69° NW 06:52:59 10° NNE daylight
03 Nov - 08:28:10 10° WNW 08:31:17 17° NNW 08:34:16 10° NNE daylight
03 Nov - 11:57:10 10° N 11:59:14 13° NNE 12:01:17 10° NE daylight
03 Nov - 13:38:14 10° NNW 13:42:21 44° NE 13:46:28 10° ESE daylight
03 Nov - 15:20:36 10° WNW 15:24:09 26° WSW 15:27:44 10° S daylight
